Location: Bouchavesnes-Bergen
(49.9859°N, 2.9203°E)
Time: 05:08:59
(UTC+00:00)

Cosmos 192 - Pass Details

Date: 09 March 2021
Orbit: 700 x 714 km, 74.0° (Epoch: 11 April)

Event Time Altitude Azimuth Distance (km) Brightness Sun altitude
Rises 04:15:23 0° 335° (NNW) 3,119 7.6 -19.8°
Reaches altitude 10° 04:17:43 10° 336° (NNW) 2,197 6.8 -19.4°
Maximum altitude 04:22:41 87° 247° (WSW) 720 4.3 -18.7°
Drops below altitude 10° 04:27:38 10° 159° (SSE) 2,188 6.9 -17.9°
Sets 04:29:57 0° 159° (SSE) 3,104 7.7 -17.6°
